Date,TemperatureHighF,TemperatureAvgF,TemperatureLowF,DewpointHighF,DewpointAvgF,DewpointLowF,HumidityHigh,HumidityAvg,HumidityLow,PressureMaxIn,PressureMinIn,WindSpeedMaxMPH,WindSpeedAvgMPH,GustSpeedMaxMPH,PrecipitationSumIn
2013-1-1,28,15,10,14,9,5,88,78,51,0.00,40.00,7,3,12,0.21
2013-1-2,28,14,4,9,4,-1,83,67,42,0.00,40.00,5,3,10,0.01
2013-1-3,31,15,6,4,0,-6,75,54,30,0.00,40.00,6,4,12,0.00
2013-1-4,32,16,7,7,3,-2,73,58,31,0.00,40.00,5,3,10,0.00
2013-1-5,35,19,6,11,6,1,80,60,36,0.00,40.00,5,3,9,0.00
2013-1-6,48,29,19,10,4,0,59,36,13,0.00,40.00,6,3,9,0.00
2013-1-7,50,31,23,8,3,1,39,31,15,0.00,40.00,6,4,9,0.00
2013-1-8,41,30,19,14,8,2,56,41,28,0.00,40.00,5,3,8,0.00
2013-1-9,50,34,22,14,11,7,54,39,22,0.00,40.00,6,4,9,0.00
2013-1-10,44,32,25,27,14,4,88,50,26,0.00,40.00,5,3,13,0.00
2013-1-11,31,17,3,23,8,-4,93,68,40,0.00,40.00,13,8,33,0.00
2013-1-12,20,6,-2,-3,-5,-9,75,62,34,0.00,40.00,8,4,15,0.03
2013-1-13,19,7,-1,5,-1,-7,76,69,47,0.00,40.00,5,2,10,0.01
2013-1-14,24,12,4,9,4,-2,83,71,39,0.00,40.00,7,3,15,0.06
2013-1-15,23,10,-2,3,-2,-8,77,59,36,0.00,40.00,6,3,13,0.03
2013-1-16,35,16,3,8,2,-4,74,55,30,0.00,40.00,5,2,10,0.05
2013-1-17,48,32,17,19,14,8,72,50,29,0.00,40.00,7,3,12,0.01
2013-1-18,46,32,22,18,16,13,68,52,31,0.00,40.00,6,3,10,0.00
2013-1-19,44,31,19,19,14,10,79,52,35,0.00,40.00,6,4,9,0.00
2013-1-20,44,30,21,16,10,3,62,45,25,0.00,40.00,5,3,9,0.00
2013-1-21,44,31,21,17,12,7,59,47,28,0.00,40.00,5,3,11,0.00
2013-1-22,47,33,22,18,14,11,65,48,28,0.00,40.00,5,2,8,0.00
2013-1-23,49,37,25,15,11,5,53,35,17,0.00,40.00,7,3,9,0.00
2013-1-24,51,39,31,26,15,6,67,40,22,0.00,40.00,7,3,15,0.00
2013-1-25,44,37,32,34,29,25,84,74,58,0.00,40.00,6,2,11,0.00
2013-1-26,37,35,33,36,33,30,97,92,82,0.00,40.00,5,2,11,1.02
2013-1-27,43,35,32,37,33,31,97,93,74,0.00,40.00,8,3,14,0.54
2013-1-28,35,31,24,33,29,20,97,93,87,0.00,40.00,10,4,17,0.17
2013-1-29,34,20,10,20,12,1,93,73,43,0.00,40.00,7,4,15,0.17
2013-1-30,34,17,4,16,7,-2,80,66,41,0.00,40.00,7,4,12,0.16
2013-1-31,41,32,14,23,20,10,82,64,44,0.00,40.00,7,4,12,0.20
2013-2-1,43,31,20,24,22,16,88,69,43,0.00,40.00,6,4,11,0.01
2013-2-2,44,32,21,24,21,18,87,65,40,0.00,40.00,6,4,9,0.01
2013-2-3,40,33,27,25,21,17,83,63,39,0.00,40.00,5,3,12,0.00
2013-2-4,40,30,22,27,23,19,88,77,52,0.00,40.00,6,3,11,0.00
2013-2-5,48,35,22,24,22,19,90,63,33,0.00,40.00,6,4,10,0.01
2013-2-6,47,36,26,25,22,19,77,58,38,0.00,40.00,11,5,19,0.01
2013-2-7,48,34,24,21,15,6,81,51,20,0.00,40.00,6,4,13,0.00
2013-2-8,48,37,27,19,17,12,59,45,24,0.00,40.00,11,4,23,0.00
2013-2-9,33,25,18,24,17,12,90,73,50,0.00,40.00,13,4,22,0.05
2013-2-10,28,22,19,21,17,15,91,83,71,0.00,40.00,7,3,15,0.02
2013-2-13,39,28,11,17,14,4,75,58,38,0.00,40.00,6,4,12,0.06
2013-2-14,42,30,16,20,16,6,83,57,40,0.00,40.00,6,4,12,0.04
2013-2-15,45,34,15,12,1,-4,59,27,13,0.00,40.00,7,4,17,0.00
2013-2-16,46,35,19,16,10,0,50,35,25,0.00,40.00,8,4,15,0.00
2013-2-17,45,37,23,15,7,3,67,31,17,0.00,40.00,8,5,18,0.00
2013-2-18,41,30,19,15,6,3,61,38,21,0.00,40.00,10,5,19,0.00
2013-2-19,45,35,16,6,4,-4,53,29,14,0.00,40.00,7,4,14,0.00
2013-2-20,35,28,21,29,20,8,92,72,33,0.00,40.00,6,3,19,0.15
2013-2-21,35,26,18,22,18,15,91,75,56,0.00,40.00,7,3,16,0.04
2013-2-22,34,24,15,22,16,8,91,74,43,0.00,40.00,8,3,20,0.02
2013-2-23,33,24,10,21,12,5,92,64,43,0.00,40.00,6,3,12,0.02
2013-2-24,34,23,15,20,10,1,91,61,24,0.00,40.00,8,4,14,0.07
2013-2-25,39,28,14,12,7,-1,60,41,24,0.00,40.00,7,4,17,0.01
2013-2-26,31,25,15,10,6,-6,69,45,27,0.00,40.00,11,5,22,0.00
2013-2-27,36,28,11,4,1,-5,49,32,23,0.00,40.00,9,5,17,0.00
2013-2-28,42,29,14,8,4,-1,53,36,21,0.00,40.00,9,5,17,0.00
2013-3-1,49,38,19,20,15,6,58,39,27,0.00,40.00,7,5,13,0.00
2013-3-2,56,44,28,24,21,15,61,42,28,0.00,40.00,7,5,16,0.00
2013-3-3,48,41,31,24,21,18,67,46,30,0.00,40.00,8,4,15,0.00
2013-3-4,49,39,30,31,23,11,93,55,26,0.00,40.00,11,6,24,0.00
2013-3-5,54,35,22,11,7,-9,50,33,7,0.00,40.00,8,4,12,0.00
2013-3-6,56,45,30,17,13,4,48,28,20,0.00,40.00,9,5,18,0.00
2013-3-7,58,48,32,18,11,7,43,24,13,0.00,40.00,8,5,16,0.00
2013-3-8,42,37,31,31,23,11,97,61,33,0.00,40.00,12,4,20,0.00
2013-3-9,33,26,21,29,23,16,97,88,80,0.00,40.00,6,3,20,0.04
2013-3-10,42,32,16,27,21,12,86,67,47,0.00,40.00,8,5,17,0.50
2013-3-11,50,36,22,27,23,18,84,62,40,0.00,40.00,7,4,13,0.14
2013-3-12,55,41,28,25,23,19,76,52,29,0.00,40.00,8,4,15,0.00
2013-3-13,59,45,31,26,22,18,72,44,20,0.00,40.00,7,5,13,0.00
2013-3-14,65,50,37,22,17,13,44,29,13,0.00,40.00,9,4,16,0.00
2013-3-15,66,52,38,21,16,12,39,25,15,0.00,40.00,10,5,23,0.00
2013-3-16,58,50,39,25,20,12,42,31,25,0.00,40.00,9,5,23,0.00
2013-3-17,53,42,33,29,18,3,69,42,21,0.00,40.00,12,6,35,0.00
2013-3-18,50,41,30,8,3,-6,35,22,10,0.00,40.00,16,8,34,0.00
2013-3-19,55,43,32,14,10,5,42,27,18,0.00,40.00,6,4,15,0.00
2013-3-20,52,40,29,25,16,10,52,39,22,0.00,40.00,8,4,26,0.00
2013-3-21,54,44,35,30,19,-7,73,43,13,0.00,40.00,16,7,39,0.00
2013-3-22,51,41,28,11,2,-14,39,22,6,0.00,40.00,17,7,45,0.00
2013-3-23,37,27,17,2,-5,-20,39,25,12,0.00,40.00,14,8,30,0.00
2013-3-24,40,25,10,-3,-6,-8,43,27,13,0.00,40.00,13,6,26,0.00
2013-3-25,47,30,14,0,-4,-10,44,26,9,0.00,40.00,7,5,20,0.00
2013-3-26,53,40,25,11,7,2,41,26,17,0.00,40.00,8,4,19,0.00
2013-3-27,60,47,35,22,12,3,45,27,10,0.00,40.00,10,6,21,0.00
2013-3-28,63,56,45,14,10,9,24,16,12,0.00,40.00,8,6,20,0.00
2013-3-29,61,50,37,22,17,10,38,28,19,0.00,40.00,11,5,23,0.00
2013-3-30,63,51,36,24,19,15,52,31,15,0.00,40.00,11,6,22,0.00
2013-3-31,66,51,36,25,18,11,54,31,13,0.00,40.00,10,5,21,0.00
2013-4-1,62,51,39,27,17,5,54,29,12,0.00,40.00,10,6,28,0.00
2013-4-2,52,43,33,24,14,7,63,33,18,0.00,40.00,11,6,23,0.00
2013-4-3,61,44,29,23,19,12,74,42,19,0.00,40.00,8,4,20,0.00
2013-4-4,65,52,36,21,13,9,42,22,11,0.00,40.00,9,5,21,0.00
2013-4-5,63,54,41,19,15,10,35,22,15,0.00,40.00,12,7,24,0.00
2013-4-6,64,53,39,26,17,10,50,26,12,0.00,40.00,12,6,24,0.00
2013-4-7,62,51,38,23,15,9,45,25,13,0.00,40.00,15,7,29,0.00
2013-4-8,60,47,33,30,20,5,90,37,11,0.00,40.00,17,7,40,0.00
2013-4-9,46,32,30,36,31,29,97,95,67,0.00,40.00,7,3,17,0.27
2013-4-10,38,29,23,29,25,20,97,84,67,0.00,40.00,5,3,8,0.25
2013-4-11,50,33,19,41,26,15,89,75,43,0.00,40.00,7,4,11,0.47
2013-4-12,58,42,29,31,26,22,93,60,27,0.00,40.00,9,4,19,0.01
2013-4-13,60,48,32,28,20,12,67,38,16,0.00,40.00,13,6,27,0.01
2013-4-14,56,50,42,33,22,17,69,34,21,0.00,40.00,15,10,33,0.00
2013-4-15,61,50,42,26,21,13,49,33,17,0.00,40.00,12,6,27,0.00
2013-4-16,64,52,42,24,15,2,43,26,9,0.00,40.00,16,9,35,0.00
2013-4-17,46,37,25,31,18,-7,90,49,13,0.00,40.00,14,7,30,0.01
2013-4-18,42,27,18,11,1,-16,67,38,8,0.00,40.00,9,4,22,0.01
2013-4-19,52,41,21,10,2,-10,29,20,15,0.00,40.00,9,6,19,0.00
2013-4-20,54,43,31,26,18,11,57,37,24,0.00,40.00,9,5,23,0.00
2013-4-21,61,46,31,23,14,1,60,33,10,0.00,40.00,12,6,27,0.00
2013-4-22,65,53,37,20,14,8,41,23,11,0.00,40.00,16,8,39,0.00
2013-4-23,53,47,32,21,5,-16,40,20,7,0.00,40.00,13,7,30,0.00
2013-4-24,60,46,28,5,-1,-12,26,15,8,0.00,40.00,8,6,23,0.00
2013-4-25,64,51,40,35,17,2,76,30,14,0.00,40.00,10,5,21,0.00
2013-4-26,60,48,35,33,26,19,80,48,22,0.00,40.00,11,5,21,0.01
2013-4-27,67,54,37,23,14,6,48,24,10,0.00,40.00,8,5,18,0.00
2013-4-28,72,59,40,20,11,8,27,16,9,0.00,40.00,10,6,19,0.00
2013-4-29,75,64,46,24,17,13,31,17,11,0.00,40.00,11,7,23,0.00
2013-4-30,75,67,51,22,11,4,26,12,7,0.00,40.00,14,8,37,0.00
2013-5-1,62,53,37,21,6,-21,25,16,5,0.00,40.00,17,8,33,0.00
2013-5-2,58,44,30,5,-2,-11,30,16,7,0.00,40.00,10,5,22,0.00
2013-5-3,63,47,31,9,4,-1,30,18,10,0.00,40.00,8,5,18,0.00
2013-5-4,68,54,36,14,3,-4,27,14,6,0.00,40.00,8,5,18,0.00
2013-5-5,64,55,47,27,15,6,39,21,15,0.00,40.00,8,5,21,0.00
2013-5-6,50,45,41,42,37,29,92,75,44,0.00,40.00,7,4,17,0.11
2013-5-7,62,48,36,41,29,16,94,56,18,0.00,40.00,8,5,22,0.07
2013-5-8,53,45,36,38,30,23,92,57,34,0.00,40.00,10,5,24,0.12
2013-5-9,54,42,35,39,31,25,91,68,42,0.00,40.00,7,4,14,0.26
2013-5-10,62,48,36,37,32,28,81,56,27,0.00,40.00,7,4,21,0.01
2013-5-11,66,50,37,34,29,23,74,48,21,0.00,40.00,9,4,23,0.01
2013-5-12,71,56,40,33,30,27,64,40,20,0.00,40.00,9,4,18,0.00
2013-5-13,79,62,47,33,28,20,47,31,11,0.00,40.00,9,5,22,0.00
2013-5-14,76,61,49,38,32,29,52,35,19,0.00,40.00,8,5,19,0.00
2013-5-15,73,59,50,44,36,26,59,43,24,0.00,40.00,8,5,21,0.01
2013-5-16,75,56,45,29,4,-100,48,24,11,0.00,40.00,8,5,21,0.01
2013-5-17,75,62,47,22,5,-100,29,14,5,0.00,40.00,12,6,22,0.00
2013-5-18,68,57,47,25,20,14,35,24,14,0.00,40.00,11,6,29,0.00
2013-5-19,61,50,40,27,22,16,53,35,18,0.00,40.00,14,5,46,0.00
2013-5-20,59,49,40,33,28,22,65,44,27,0.00,40.00,12,5,24,0.00
2013-5-21,70,54,38,33,27,23,69,40,17,0.00,40.00,10,5,23,0.00
2013-5-22,75,61,44,29,21,10,48,26,8,0.00,40.00,9,5,22,0.00
2013-5-23,80,66,49,27,15,1,30,16,5,0.00,40.00,12,6,26,0.00
2013-5-24,77,66,48,21,13,6,28,14,7,0.00,40.00,11,8,25,0.00
2013-5-25,79,64,47,21,12,6,27,15,6,0.00,40.00,10,6,24,0.00
2013-5-26,76,65,50,24,12,3,31,14,6,0.00,40.00,10,5,20,0.00
2013-5-27,71,60,46,18,11,7,26,15,8,0.00,40.00,10,5,20,0.00
2013-5-28,73,58,44,19,13,2,29,18,7,0.00,40.00,10,5,19,0.00
2013-5-29,65,56,45,36,25,12,67,33,16,0.00,40.00,12,7,28,0.00
2013-5-30,69,58,43,26,19,10,48,25,12,0.00,40.00,17,9,30,0.00
2013-5-31,72,59,46,25,12,-8,33,18,4,0.00,40.00,15,7,36,0.00
2013-6-1,77,60,41,12,7,2,23,14,6,0.00,40.00,7,5,19,0.00
2013-6-2,81,64,47,27,19,9,25,18,10,0.00,40.00,10,5,21,0.00
2013-6-3,78,66,53,37,27,20,41,25,13,0.00,40.00,17,5,35,0.00
2013-6-4,81,68,52,31,22,15,35,19,9,0.00,40.00,10,6,24,0.00
2013-6-5,82,67,54,29,20,12,28,17,9,0.00,40.00,18,6,38,0.00
2013-6-6,81,65,52,27,21,16,28,20,10,0.00,40.00,9,4,26,0.00
2013-6-7,81,66,53,35,30,23,38,27,15,0.00,40.00,9,4,23,0.00
2013-6-8,87,69,51,34,27,18,40,23,8,0.00,40.00,13,6,28,0.00
2013-6-9,90,75,57,32,24,16,32,17,8,0.00,40.00,10,5,21,0.00
2013-6-10,90,78,60,33,21,13,25,13,6,0.00,40.00,10,6,24,0.00
2013-6-11,84,76,58,29,13,6,24,10,5,0.00,40.00,15,8,25,0.00
2013-6-12,88,70,56,27,16,5,21,13,5,0.00,40.00,9,5,19,0.00
2013-6-13,88,73,58,35,23,15,29,16,8,0.00,40.00,12,6,26,0.00
2013-6-14,84,71,57,40,28,14,46,24,8,0.00,40.00,12,6,32,0.00
2013-6-15,82,68,55,37,28,14,44,24,11,0.00,40.00,17,6,37,0.00
2013-6-16,82,67,51,37,31,24,51,30,12,0.00,40.00,13,6,26,0.00
2013-6-17,84,68,56,37,27,20,41,23,11,0.00,40.00,11,6,28,0.00
2013-6-18,81,70,58,43,30,-1,45,25,4,0.00,40.00,9,6,22,0.00
2013-6-19,84,72,55,23,8,-7,23,10,3,0.00,40.00,11,6,23,0.00
2013-6-20,80,70,53,18,11,-2,18,10,6,0.00,40.00,10,7,22,0.00
2013-6-22,82,75,65,18,11,4,15,9,6,0.00,40.00,10,6,23,0.00
2013-6-23,85,69,52,22,12,1,22,12,4,0.00,40.00,9,5,23,0.00
2013-6-24,77,68,55,26,12,5,24,12,6,0.00,40.00,13,6,26,0.00
2013-6-25,82,72,53,27,21,10,22,15,11,0.00,40.00,10,6,22,0.00
2013-6-26,92,76,56,32,27,23,33,18,9,0.00,40.00,8,5,18,0.00
2013-6-27,94,77,61,36,29,19,31,19,7,0.00,40.00,7,5,25,0.00
2013-6-28,93,74,64,41,35,29,36,25,12,0.00,40.00,13,4,36,0.00
2013-6-29,87,71,59,43,40,36,47,34,19,0.00,40.00,8,4,24,0.00
2013-6-30,85,67,56,50,43,40,58,44,22,0.00,40.00,14,5,27,0.04
2013-7-1,84,69,54,46,42,37,62,40,19,0.00,40.00,9,5,18,0.01
2013-7-2,81,67,55,51,45,42,69,47,27,0.00,40.00,7,4,15,0.05
2013-7-3,85,67,53,49,45,41,76,49,22,0.00,40.00,8,4,25,0.01
2013-7-4,84,71,58,45,41,37,54,36,20,0.00,40.00,9,4,17,0.00
2013-7-5,86,68,58,56,48,43,92,51,23,0.00,40.00,10,4,26,0.08
2013-7-6,87,65,57,54,50,44,75,59,25,0.00,40.00,9,4,22,0.01
2013-7-7,88,72,56,51,46,41,72,44,19,0.00,40.00,8,4,16,0.01
2013-7-8,87,73,60,50,45,34,60,39,15,0.00,40.00,11,6,22,0.01
2013-7-9,91,74,59,48,43,37,59,36,15,0.00,40.00,8,5,30,0.00
2013-7-10,91,72,63,51,41,-100,62,37,18,0.00,40.00,12,5,24,0.01
2013-7-11,87,71,58,51,48,45,65,47,23,0.00,40.00,9,4,16,0.01
2013-7-12,80,66,58,57,51,46,85,62,30,0.00,40.00,8,4,18,0.01
2013-7-13,85,69,57,53,49,42,74,53,22,0.00,40.00,11,4,24,0.01
2013-7-14,83,70,60,51,48,45,66,48,28,0.00,40.00,10,4,20,0.00
2013-7-15,80,63,56,58,55,47,97,76,37,0.00,40.00,7,4,15,0.26
2013-7-16,77,68,61,53,52,50,69,56,40,0.00,40.00,8,5,15,0.20
2013-7-17,83,66,54,54,50,43,92,60,29,0.00,40.00,7,5,16,0.06
2013-7-18,83,69,56,50,48,43,72,48,30,0.00,40.00,8,5,18,0.00
2013-7-19,82,65,56,55,51,47,90,64,30,0.00,40.00,10,4,24,0.01
2013-7-20,84,68,57,53,50,45,77,54,28,0.00,40.00,7,4,17,0.00
2013-7-21,87,66,56,53,48,44,69,53,24,0.00,40.00,7,4,18,0.01
2013-7-22,89,69,55,49,45,41,70,45,19,0.00,40.00,12,4,20,0.01
2013-7-23,87,72,60,47,42,37,55,36,17,0.00,40.00,9,4,24,0.00
2013-7-24,87,71,58,55,44,38,84,42,19,0.00,40.00,10,5,28,0.03
2013-7-25,85,69,55,54,49,45,85,55,25,0.00,40.00,9,5,19,0.03
2013-7-26,85,69,57,53,48,45,74,49,28,0.00,40.00,8,4,20,0.00
2013-7-27,81,67,54,54,47,44,83,52,30,0.00,40.00,8,5,17,0.01
2013-7-28,71,60,56,59,56,52,95,85,62,0.00,40.00,7,3,25,0.36
2013-7-29,80,65,52,55,47,34,92,60,20,0.00,40.00,11,5,22,0.01
2013-7-30,84,70,54,47,40,32,62,38,16,0.00,40.00,9,5,20,0.01
2013-7-31,89,73,57,43,35,30,45,27,13,0.00,40.00,9,5,30,0.00
2013-8-1,73,65,57,57,47,33,95,57,27,0.00,40.00,9,4,17,0.02
2013-8-2,83,64,53,56,52,46,95,70,29,0.00,40.00,6,4,22,0.63
2013-8-3,81,65,53,56,50,46,94,65,31,0.00,40.00,9,4,14,0.44
2013-8-4,84,68,56,52,46,40,67,47,23,0.00,40.00,8,4,24,0.00
2013-8-5,81,65,54,54,51,43,88,65,27,0.00,40.00,11,4,23,0.02
2013-8-6,77,65,55,54,49,46,95,60,33,0.00,40.00,8,4,20,0.33
2013-8-7,70,56,50,55,52,48,96,86,52,0.00,40.00,8,3,20,1.22
2013-8-8,66,54,50,53,49,44,95,84,53,0.00,40.00,8,3,19,0.06
2013-8-9,79,62,48,48,43,38,79,54,27,0.00,40.00,8,4,15,0.02
2013-8-10,78,61,48,49,45,40,93,61,29,0.00,40.00,23,5,51,0.20
2013-8-11,77,60,46,48,43,38,89,59,27,0.00,40.00,7,4,18,0.02
2013-8-12,78,64,52,51,44,39,64,49,31,0.00,40.00,7,4,20,0.01
2013-8-13,80,63,52,49,40,-100,69,47,19,0.00,40.00,9,4,18,0.01
2013-8-14,81,66,53,43,38,31,54,37,17,0.00,40.00,8,4,29,0.00
2013-8-15,85,63,54,41,22,-100,43,28,17,0.00,40.00,10,4,27,0.00
2013-8-16,88,71,58,41,27,-100,37,23,11,0.00,40.00,8,4,16,0.00
2013-8-17,84,70,60,42,36,29,42,29,18,0.00,40.00,10,5,28,0.00
2013-8-18,83,69,55,47,43,40,62,41,23,0.00,40.00,8,4,17,0.00
2013-8-21,88,67,57,52,45,39,78,48,18,0.00,40.00,11,5,29,0.04
2013-8-22,85,71,56,51,45,39,69,43,20,0.00,40.00,8,5,19,0.01
2013-8-23,84,71,58,51,41,25,71,38,13,0.00,40.00,8,5,19,0.01
2013-8-24,76,63,54,54,49,43,94,63,35,0.00,40.00,9,4,17,0.21
2013-8-25,69,59,55,61,56,53,96,89,61,0.00,40.00,6,3,13,0.70
2013-8-26,79,66,54,59,54,48,96,68,35,0.00,40.00,7,4,15,0.48
2013-8-27,80,64,57,54,51,48,77,65,36,0.00,40.00,7,3,14,0.03
2013-8-28,86,76,62,52,47,41,57,38,21,0.00,40.00,7,5,16,0.00
2013-8-29,87,68,57,50,48,46,69,51,26,0.00,40.00,7,4,20,0.00
2013-8-30,89,71,58,54,45,39,80,44,18,0.00,40.00,6,3,16,0.01
2013-8-31,86,72,58,51,47,43,63,44,24,0.00,40.00,8,4,16,0.01
2013-9-1,87,71,57,49,45,41,62,42,21,0.00,40.00,8,5,23,0.00
2013-9-2,85,69,61,50,47,42,68,48,24,0.00,40.00,10,4,19,0.00
2013-9-3,85,68,59,56,48,44,71,50,27,0.00,40.00,9,4,17,0.00
2013-9-4,90,72,58,51,47,41,68,46,20,0.00,40.00,7,4,15,0.02
2013-9-5,87,74,56,50,42,33,59,36,18,0.00,40.00,7,4,17,0.01
2013-9-6,88,76,60,41,37,34,43,26,15,0.00,40.00,9,5,18,0.00
2013-9-7,86,72,58,43,38,34,45,31,16,0.00,40.00,8,4,17,0.00
2013-9-17,75,63,53,52,48,45,87,62,35,0.00,40.00,6,3,14,0.01
2013-9-18,56,54,49,52,51,48,95,91,88,0.00,40.00,5,3,11,0.33
2013-9-19,72,59,47,53,46,36,93,66,33,0.00,40.00,7,4,15,0.01
2013-9-20,76,61,46,44,36,32,68,43,22,0.00,40.00,7,4,16,0.00
2013-9-21,73,62,50,48,41,35,80,50,26,0.00,40.00,7,4,14,0.00
2013-9-22,61,50,38,53,46,36,94,87,63,0.00,40.00,17,5,36,1.93
2013-9-23,66,49,35,41,36,33,93,67,30,0.00,40.00,7,4,15,0.31
2013-9-24,72,55,40,38,33,24,77,49,18,0.00,40.00,7,4,11,0.01
2013-9-25,72,67,60,36,29,22,38,25,20,0.00,40.00,11,7,25,0.00
2013-9-26,71,62,49,29,22,17,36,22,13,0.00,40.00,9,6,21,0.00
2013-9-27,58,46,36,44,35,21,95,68,33,0.00,40.00,10,5,22,0.10
2013-9-28,60,45,28,27,22,18,69,44,23,0.00,40.00,6,4,13,0.01
2013-9-29,67,51,36,31,26,20,64,40,19,0.00,40.00,8,5,17,0.00
2013-9-30,73,61,42,31,26,21,46,28,18,0.00,40.00,7,5,13,0.00
2013-10-3,66,60,44,31,29,25,46,32,22,0.00,40.00,9,5,19,0.00
2013-10-4,53,43,32,27,18,8,64,39,16,0.00,40.00,11,5,21,0.00
2013-10-5,53,40,26,19,16,9,54,39,23,0.00,40.00,8,5,19,0.00
2013-10-6,65,47,31,23,20,17,59,37,19,0.00,40.00,7,5,16,0.00
2013-10-7,71,66,56,29,22,19,35,19,14,0.00,40.00,7,5,12,0.00
2013-10-8,67,59,43,27,23,19,40,26,18,0.00,40.00,9,6,19,0.00
2013-10-9,65,56,44,36,25,19,64,33,18,0.00,40.00,11,5,22,0.00
2013-10-17,55,40,28,24,19,13,70,46,24,0.00,40.00,6,4,14,0.02
2013-10-18,56,41,29,21,14,9,53,34,18,0.00,40.00,8,4,14,0.00
2013-10-19,57,42,29,20,13,6,42,31,20,0.00,40.00,8,5,17,0.00
2013-10-20,59,46,31,22,19,16,58,37,19,0.00,40.00,7,4,18,0.00
2013-10-21,60,47,35,22,17,13,45,31,17,0.00,40.00,9,5,20,0.00
2013-10-22,64,48,34,20,17,12,46,31,14,0.00,40.00,6,4,13,0.00
2013-10-23,67,52,37,24,19,15,45,29,14,0.00,40.00,7,4,12,0.00
2013-10-25,62,48,40,38,35,25,82,63,37,0.00,40.00,9,3,22,0.00
2013-10-26,63,47,37,37,33,27,87,62,25,0.00,40.00,8,4,14,0.00
2013-10-27,59,47,37,34,30,25,78,54,29,0.00,40.00,7,4,14,0.00
2013-10-28,58,50,42,30,22,-100,60,36,24,0.00,40.00,9,4,22,0.00
2013-10-29,50,44,33,34,26,17,93,52,30,0.00,40.00,18,7,27,0.01
2013-10-30,43,34,29,34,28,24,93,81,52,0.00,40.00,11,3,20,0.06
2013-10-31,44,33,25,26,23,21,90,70,44,0.00,40.00,7,3,13,0.06
2013-11-1,52,37,26,27,24,21,83,61,36,0.00,40.00,7,4,15,0.00
2013-11-2,61,48,32,23,20,16,68,38,18,0.00,40.00,7,4,11,0.00
2013-11-3,53,47,36,30,25,17,66,44,31,0.00,40.00,10,5,16,0.00
2013-11-4,50,45,30,32,24,15,71,46,29,0.00,40.00,9,5,19,0.00
2013-11-5,43,34,23,33,22,9,96,67,29,0.00,40.00,10,4,18,0.01
2013-11-6,46,32,19,14,11,7,64,44,26,0.00,40.00,7,4,12,0.00
2013-11-7,58,45,27,18,15,13,56,32,18,0.00,40.00,7,4,10,0.00
2013-11-8,58,52,34,19,17,14,44,26,19,0.00,40.00,9,5,15,0.00
2013-11-9,61,56,34,21,18,15,45,22,19,0.00,40.00,6,5,12,0.00
2013-11-10,62,58,41,22,16,14,34,20,16,0.00,40.00,6,5,14,0.00
2013-11-11,63,58,43,21,14,11,29,18,13,0.00,40.00,6,5,12,0.00
2013-11-12,65,57,42,17,14,12,33,19,14,0.00,40.00,8,5,13,0.00
2013-11-13,56,49,39,23,21,19,52,34,26,0.00,40.00,7,5,12,0.00
2013-11-14,56,44,33,26,23,20,64,43,27,0.00,40.00,7,5,16,0.00
2013-11-15,50,37,31,33,26,19,94,67,35,0.00,40.00,9,4,19,0.15
2013-11-16,39,36,34,35,33,31,96,88,76,0.00,40.00,12,6,28,0.25
2013-11-17,50,39,31,32,29,26,87,69,44,0.00,40.00,10,5,24,0.02
2013-11-18,53,39,29,30,26,22,87,62,33,0.00,40.00,6,3,11,0.00
2013-11-19,51,40,30,30,26,23,76,58,38,0.00,40.00,7,4,12,0.00
2013-11-20,49,38,32,34,29,24,95,70,46,0.00,40.00,7,4,13,0.14
2013-11-21,40,36,33,37,34,32,96,93,86,0.00,40.00,6,2,14,0.37
2013-11-22,36,34,32,34,32,31,96,95,92,0.00,40.00,5,2,12,0.72
2013-11-23,40,35,32,37,33,30,96,93,82,0.00,40.00,5,3,10,0.57
2013-11-24,31,26,21,30,24,19,96,92,82,0.00,40.00,5,2,9,0.02
2013-11-25,30,25,20,27,23,17,94,91,83,0.00,40.00,5,2,8,0.09
2013-11-26,30,25,21,25,22,18,93,90,82,0.00,40.00,5,2,8,0.02
2013-11-27,41,30,20,33,25,18,90,82,71,0.00,40.00,6,3,8,0.41
2013-11-28,51,35,26,31,24,20,89,66,31,0.00,40.00,7,3,11,0.06
2013-11-29,47,36,27,25,22,19,72,58,35,0.00,40.00,6,4,12,0.00
2013-11-30,49,35,27,28,24,20,87,65,44,0.00,40.00,6,2,12,0.00
2013-12-1,28,25,22,26,23,20,93,92,90,0.00,40.00,3,1,5,0.00
2013-12-2,29,27,26,25,24,23,94,90,84,0.00,40.00,5,2,9,0.00
2013-12-3,44,33,23,25,22,19,89,66,43,0.00,40.00,7,3,16,0.00
2013-12-12,49,31,20,13,7,5,56,39,18,0.00,40.00,7,4,11,0.01
2013-12-13,38,28,21,21,14,6,77,57,39,0.00,40.00,6,3,11,0.00
2013-12-14,38,26,18,16,14,9,78,62,38,0.00,40.00,7,4,13,0.00
2013-12-15,41,27,17,20,16,12,81,63,42,0.00,40.00,5,2,12,0.00
2013-12-16,45,31,21,22,18,13,73,58,39,0.00,40.00,5,2,8,0.00
2013-12-17,50,38,26,21,17,12,63,45,22,0.00,40.00,5,3,8,0.00
2013-12-18,49,39,30,20,16,13,50,41,25,0.00,40.00,6,3,10,0.00
2013-12-19,47,37,29,22,18,13,59,47,34,0.00,40.00,7,4,13,0.00
2013-12-20,38,32,26,29,25,21,87,76,66,0.00,40.00,8,3,15,0.06
2013-12-21,29,25,22,22,20,16,88,82,65,0.00,40.00,4,2,8,0.04
2013-12-22,34,24,14,16,12,8,86,63,38,0.00,40.00,8,4,13,0.00
2013-12-23,38,24,13,15,11,8,80,60,36,0.00,40.00,7,4,12,0.00
2013-12-24,40,28,19,20,15,10,70,58,42,0.00,40.00,6,3,12,0.00
2013-12-25,42,29,19,14,6,-4,57,39,24,0.00,40.00,5,3,11,0.00
2013-12-26,43,30,20,16,12,6,59,47,32,0.00,40.00,6,3,9,0.00
2013-12-28,42,33,26,18,15,12,60,49,33,0.00,40.00,6,3,9,0.00
2013-12-29,42,31,24,20,18,16,71,58,37,0.00,40.00,7,3,13,0.00
2013-12-30,42,28,17,19,16,12,83,62,37,0.00,40.00,5,3,10,0.00
2013-12-31,43,30,20,17,15,13,74,55,34,0.00,40.00,8,4,13,0.00
2014-1-1,48,33,22,19,13,-1,71,47,24,0.00,40.00,7,4,10,0.00
2014-1-2,47,33,23,10,6,0,42,33,18,0.00,40.00,6,4,10,0.00